Tracking 30923 objects as of 1-Jul-2025
HD Live streaming from Space Station
objects crossing your sky now

STARLINK-30994

Track STARLINK-30994 now!
10-day predictions
STARLINK-30994 is classified as:


NORAD ID: 58483
Int'l Code: 2023-186L
Perigee: 494.3 km
Apogee: 496.1 km
Inclination: 43.0 °
Period: 94.4 minutes
Semi major axis: 6866 km
RCS: Unknown
Launch date: December 3, 2023
Source: United States (US)
Launch site: AIR FORCE EASTERN TEST RANGE (AFETR)
Your satellite tracking list
Your tracking list is empty




NASA's NSSDC Master Catalog

Two Line Element Set (TLE):
1 58483U 23186L   25181.19455493  .00000549  00000-0  30823-4 0  9993
2 58483  43.0010 245.6713 0001271 282.2145  77.8564 15.25909117 89195
Source of the keplerian elements: AFSPC